[Iaude] MPEC N44: 2018 PL9 [a=3.28,e=0.68,i=31.0,H=19.28]
    mpec at cfa.harvard.edu 
    mpec at cfa.harvard.edu
       
    Fri Jul  5 10:16:46 EDT 2024
    
    
  
M.P.E.C. 2024-N44                                  Issued 2024 July 5, 14:15 UT
     The Minor Planet Electronic Circulars contain information on unusual
         minor planets, routine data on comets and natural satellites,
         and occasional editorial announcements.  They are published
    on behalf of Division F of the International Astronomical Union by the
          Minor Planet Center, Smithsonian Astrophysical Observatory,
                          Cambridge, MA 02138, U.S.A.
			  
             Prepared using the Tamkin Foundation Computer Network
                              MPC at CFA.HARVARD.EDU
            URL https://www.minorplanetcenter.net/    ISSN 1523-6714
                                    2018 PL9                                    
                           Revision to MPEC 2018-P46                            
Additional Observations:
     K18P09L  C2024 06 30.57857423 12 28.020-18 19 05.71         21.19wXEN044F52
     K18P09L  C2024 06 30.59052723 12 28.831-18 18 45.24         21.18wXEN044F52
     K18P09L  C2024 06 30.60250823 12 29.634-18 18 25.14         21.16wXEN044F52
     K18P09L  C2024 07 01.58421023 13 39.460-17 50 09.21         21.03GVEN044F51
     K18P09L  C2024 07 01.58502623 13 39.504-17 50 07.71         21.11GVEN044F51
Observer details:
F51 Pan-STARRS 1, Haleakala.  Observers J. Herman, T. Lowe, P. Minguez, A.
    Schultz, I. Smith.  Measurers K. Chambers, T. de Boer, J. Fairlamb, H.
    Gao, M. Huber, C.-C. Lin, E. Magnier, Y. Ramanjooloo, R. Wainscoat, R.
    Weryk.  1.8-m Ritchey-Chretien + CCD.
F52 Pan-STARRS 2, Haleakala.  Observers J. Herman, T. Lowe, P. Minguez, A.
    Schultz, I. Smith.  Measurers K. Chambers, T. de Boer, J. Fairlamb, H.
    Gao, M. Huber, C.-C. Lin, E. Magnier, Y. Ramanjooloo, R. Wainscoat, R.
    Weryk.  1.8-m Ritchey-Chretien + CCD.
First and last observations above in comparison with prediction:
Residuals in seconds of arc, reference and Delta-T
240630 F52 58.2- 76.0-    240701 F51 59.6- 77.7-    MPO740867   +0.09 days
Orbital elements:
2018 PL9                                                 Earth MOID = 0.2929 AU
Epoch 2024 Mar. 31.0 TT = JDT 2460400.5                 Veres                   
M 329.08610              (2000.0)            P               Q                  
n   0.16622070     Peri.   68.14469     +0.80637584     -0.48303456             
a   3.2760158      Node   318.46079     +0.13005861     +0.70769234             
e   0.6756959      Incl.   30.96857     +0.57692527     +0.51560563             
P   5.93           H   19.28          G   0.15           U   0                  
Residuals in seconds of arc
180612 F51 (0.2-  0.4-)   180810 P93  0.1+  0.0     180921 C51  0.1-  0.2-
180612 F51  0.0   0.1-    180810 P93  0.2-  0.1+    180921 C51  0.5+  0.5-
180612 F51  0.1-  0.1+    180810 E94  0.2-  0.5+    180921 C51  0.1-  0.3-
180612 F51 (0.4+  0.0 )   180810 E94  0.4+  0.9+    180921 C51  0.2+  0.9-
180613 F51  0.2-  0.1-    180810 E94  0.4+  0.6+    180921 C51  0.4-  0.1-
180613 F51  0.1-  0.2-    180810 E94  1.6-  0.8+    180921 C51  0.2-  0.4-
180613 F51  0.1-  0.2+    180810 E94  0.4-  0.5+    180921 C51  0.0   0.3-
180613 F51  0.0   0.1-    180811 T05  0.1+  0.3-    180930 I52  0.0   0.3-
180624 F51  0.0   0.0     180811 T05  0.3+  0.1+    180930 I52  0.1-  0.4-
180624 F51  0.0   0.2+    180811 T05  0.1+  0.0     180930 I52  0.5-  0.7+
180624 F51  0.0   0.0     180811 T05  0.2+  0.1-    180930 I52 (0.3+  1.2+)
180624 F51 (0.1-  0.3+)   180811 204  0.3+  0.2+    181001 H21  0.6-  0.3-
180807 F51  0.0   0.0     180811 204  0.1+  0.0     181001 H21  0.3-  0.3-
180807 F51  0.0   0.0     180815 W88  0.4-  0.3-    181001 H21  0.4-  0.4-
180807 T05  0.4+  0.1-    180815 W88  0.0   0.1-    181003 F52  0.1-  0.0
180807 F51  0.0   0.0     180815 W88  0.3-  0.4-    181003 F52  0.1-  0.1+
180807 T05  0.1-  0.4+    180815 W88  0.2-  0.8-    181003 F52  0.0   0.0
180807 T05  0.1+  0.4-    180816 807  0.1+  0.1-    181003 F52  0.1-  0.1+
180807 T05  0.5-  0.1-    180816 807  0.0   0.1-    181020 I52  0.3+  0.3-
180807 Q62  0.0   0.1+    180816 807  0.1+  0.0     181020 I52  0.2-  0.3-
180807 Q62  0.0   0.1+    180816 W88  0.3-  0.5-    181020 I52  0.3-  0.4+
180807 Q62  0.1+  0.0     180816 W88  0.1+  0.1+    181020 I52  0.3+  0.6+
180807 L01  0.3+  0.3+    180816 W88  0.1-  0.0     181027 I52  0.3+  0.6-
180807 L01  0.1+  0.6-    180816 W88  0.2-  0.1-    181027 I52  0.2+  0.2+
180807 L01  0.0   0.2+    180823 H21  0.1-  0.2+    181027 I52  0.4-  0.0
180808 850  0.3-  0.2+    180823 H21  0.6-  0.4+    181116 I52  0.2+  0.0
180808 850  0.3-  0.1+    180823 H21  0.0   0.4+    181116 I52  0.6-  0.1-
180808 850  0.4-  0.1+    180826 K63  1.8+  0.5-    181116 I52  0.5-  0.5-
180808 850  0.2+  0.2+    180826 K63  0.3+  0.4-    181116 I52  0.2-  0.1+
180808 711  0.7-  0.1-    180826 K63  1.3+  0.7-    181125 C51  0.4+  0.0
180808 711  0.5-  0.1-    180827 160  0.2-  0.2-    181125 C51  0.0   0.3-
180808 711  0.4-  0.0     180827 160  0.0   0.1-    181125 C51  0.3+  0.0
180808 Q62  0.1-  0.2+    180827 160  0.4-  0.2+    181125 C51  0.3+  0.0
180808 Q62  0.2-  0.3+    180831 H21  0.3-  0.2-    181126 C51  0.2+  0.2-
180808 Q62  0.0   0.1+    180831 H21  0.1-  0.2+    181126 C51  0.1+  0.0
180808 P93  0.1-  0.2-    180831 H21  0.4-  0.1+    181126 C51  0.2+  0.5-
180808 P93  0.3+  0.0     180831 H21  0.1-  0.1+    181126 C51  0.1+  0.2-
180808 P93  0.1+  0.1-    180831 H21  0.1-  0.3+    181126 C51  0.0   0.1-
180809 E23  0.1+  0.1+    180831 691  0.1-  0.0     181127 I52  0.1+  0.0
180809 E23  0.3+  0.6+    180831 691  0.1-  0.1-    181127 I52  0.6+  0.1+
180809 E23  0.2+  0.1+    180831 691  0.1+  0.3-    181127 I52  0.5+  0.3-
180809 J04  0.2-  0.0     180831 C95 (1.8-  1.2-)   181127 I52  0.2-  0.2-
180809 J04  0.1+  0.1-    180831 C95  0.4+  0.5-    190108 I52  0.4-  0.1-
180809 J04  0.1+  0.1-    180831 C95  0.4-  0.4+    190108 I52  0.2+  0.3+
180809 J04  0.1-  0.1+    180902 H21  0.0   0.1-    190108 I52  0.1+  0.2+
180809 J04  0.0   0.2-    180902 H21  0.2-  0.2-    190124 G96  0.2-  0.0
180809 X31  0.1+  0.0     180902 H21  0.1+  0.1-    190124 G96  0.1-  0.5-
180809 X31  0.0   0.3+    180902 H21  0.3+  0.3+    190124 G96  0.1-  0.2-
180809 X31  0.5-  0.2+    180902 H21  0.2-  0.1-    190124 G96  0.2+  0.0
180810 X74  0.1+  0.2+    180918 691  0.3-  0.1+    240630 F52  0.0   0.0
180810 X74  0.3-  0.2-    180918 691  0.0   0.3+    240630 F52  0.1+  0.1+
180810 X74  0.4+  0.4+    180918 691  0.4-  0.1+    240630 F52  0.0   0.1-
180810 E94  0.2+  0.4+    180920 C51  0.2+  0.2+    240701 F51  0.1+  0.1-
180810 E94  0.5-  0.7+    180921 C51  0.5-  0.3-    240701 F51  0.1-  0.0
180810 P93  0.3-  0.1-    180921 C51  0.0   0.1-
Ephemeris:
2018 PL9                 a,e,i = 3.28, 0.68, 31                  q = 1.0624
Date    TT    R. A. (2000) Decl.     Delta      r    Elong.  Phase     V
2024 06 05    22 38 03.2 -27 11 00   1.3121  1.8323   103.2    32.6    22.6
...
2024 06 20    22 59 07.7 -22 39 07   1.0494  1.7017   110.9    33.9    22.0
...
2024 06 28    23 09 20.7 -19 29 29   0.9170  1.6324   115.1    34.3    21.6
...
2024 07 04    23 16 27.3 -16 36 53   0.8221  1.5808   118.2    34.5    21.3
2024 07 05    23 17 35.3 -16 04 57   0.8067  1.5722   118.7    34.6    21.2
2024 07 06    23 18 42.4 -15 32 01   0.7914  1.5637   119.2    34.6    21.2
...
2024 07 12    23 25 05.0 -11 50 07   0.7027  1.5128   122.2    34.7    20.8
...
2024 07 20    23 32 37.5 -05 31 38   0.5937  1.4464   125.9    34.7    20.4
...
2024 08 04    23 43 12.5 +12 50 48   0.4296  1.3281   129.1    36.4    19.5
A. U. Tomatic                (C) Copyright 2024 MPC           M.P.E.C. 2024-N44
    
    
More information about the Iaude
mailing list